VK2AAK Weather Reports


time (UTC)temp
C
wind
direction
speed
KPH
gust
KPH
rain 1hr
cm
rain 24hr
cm
rain mn
cm
humidity
%
barometer
mb
20190423100009 18 0 0.0 0.0 0.00 0.08 0.08 1 1025.0
20190423094509 18 0 0.0 0.0 0.00 0.08 0.08 1 1024.9
20190423093004 18 0 0.0 0.0 0.00 0.08 0.08 1 1024.9
20190423090009 18 0 0.0 0.0 0.00 0.08 0.08 1 1024.5
20190423084504 18 0 0.0 0.0 0.00 0.08 0.08 1 1024.4
20190423083005 19 0 0.0 0.0 0.00 0.08 0.08 1 1024.2
20190423081504 19 0 0.0 0.0 0.00 0.08 0.08 1 1024.0
20190423080004 19 0 0.0 0.0 0.00 0.08 0.08 1 1023.9
20190423074509 20 0 0.0 0.0 0.00 0.08 0.08 1 1023.7
20190423073004 20 0 0.0 0.0 0.00 0.08 0.08 1 1023.6
20190423071509 20 0 0.0 0.0 0.00 0.08 0.08 1 1023.4
20190423070009 20 90 0.0 3.2 0.00 0.08 0.08 1 1023.2
20190423064509 20 88 0.0 6.4 0.00 0.08 0.08 1 1023.3
20190423063004 20 97 6.4 11.3 0.00 0.08 0.08 1 1023.3
20190423061510 21 112 4.8 17.7 0.00 0.08 0.08 1 1023.2
20190423060005 22 102 8.0 19.3 0.00 0.08 0.08 1 1022.9
20190423054504 23 83 4.8 12.9 0.00 0.08 0.08 1 1022.7
20190423053009 23 71 4.8 11.3 0.00 0.08 0.08 1 1022.8
20190423051504 24 90 3.2 11.3 0.00 0.08 0.08 1 1022.5
20190423050004 24 100 6.4 14.5 0.00 0.08 0.08 1 1022.4
20190423044509 24 85 4.8 14.5 0.00 0.08 0.08 1 1022.4
20190423043009 25 50 3.2 11.3 0.00 0.08 0.08 1 1022.4
20190423041504 25 98 1.6 11.3 0.00 0.08 0.08 1 1022.4
20190423040009 24 88 3.2 16.1 0.00 0.08 0.08 1 1022.4
20190423034509 24 84 4.8 16.1 0.00 0.08 0.08 1 1022.4
20190423033004 25 84 4.8 9.7 0.00 0.08 0.08 1 1022.6
20190423031504 25 69 1.6 8.0 0.00 0.08 0.08 1 1022.8
20190423030012 25 86 4.8 11.3 0.00 0.08 0.08 1 1022.9
20190423024504 25 33 4.8 11.3 0.00 0.08 0.08 1 1023.1
20190423023004 25 98 3.2 14.5 0.00 0.08 0.08 1 1023.4
20190423021504 25 91 3.2 11.3 0.00 0.08 0.08 1 1023.9
20190423020009 25 52 3.2 16.1 0.00 0.08 0.08 1 1023.9
20190423014505 25 87 3.2 16.1 0.00 0.08 0.08 1 1024.1
20190423013010 25 22 3.2 11.3 0.00 0.08 0.08 1 1024.4
20190423011503 24 8 3.2 11.3 0.00 0.08 0.08 1 1024.6
20190423010004 25 31 3.2 9.7 0.00 0.08 0.08 1 1024.7
20190423004509 24 8 3.2 9.7 0.03 0.08 0.08 1 1024.9
20190423003004 22 71 3.2 8.0 0.03 0.08 0.08 1 1025.0
20190423001503 23 64 1.6 4.8 0.03 0.08 0.08 1 1025.2
20190423000004 22 64 0.0 4.8 0.03 0.08 0.08 1 1025.2
20190422234504 21 0 0.0 0.0 0.00 0.05 0.05 1 1025.3
20190422233004 20 64 0.0 1.6 0.00 0.05 0.05 1 1025.4
20190422231504 19 56 0.0 4.8 0.00 0.05 0.05 1 1025.6
20190422230005 18 55 0.0 3.2 0.00 0.05 0.05 1 1025.6
20190422224504 18 48 0.0 1.6 0.00 0.05 0.05 1 1025.5
20190422223009 17 46 0.0 4.8 0.00 0.05 0.05 1 1025.5
20190422221503 16 46 0.0 3.2 0.00 0.05 0.05 1 1025.6
20190422220004 16 46 0.0 1.6 0.00 0.05 0.05 1 1025.6
20190422214504 15 46 0.0 3.2 0.00 0.05 0.05 1 1025.5
20190422213004 14 0 0.0 0.0 0.00 0.05 0.05 1 1025.5
20190422211505 13 0 0.0 0.0 0.00 0.05 0.05 1 1025.4
20190422210010 13 0 0.0 0.0 0.00 0.05 0.05 1 1025.2
20190422204503 13 0 0.0 0.0 0.00 0.05 0.05 1 1025.0
20190422203009 13 0 0.0 0.0 0.00 0.05 0.05 1 1024.9
20190422201509 13 0 0.0 0.0 0.00 0.05 0.05 1 1024.9
20190422200004 12 46 0.0 1.6 0.00 0.05 0.05 1 1024.8
20190422194504 12 0 0.0 0.0 0.00 0.05 0.05 1 1024.5
20190422193009 12 0 0.0 0.0 0.00 0.08 0.05 1 1024.4
20190422191504 13 0 0.0 0.0 0.00 0.08 0.05 1 1024.4
20190422190004 13 0 0.0 0.0 0.00 0.08 0.05 1 1024.3
20190422184504 13 0 0.0 0.0 0.00 0.08 0.05 1 1023.9
20190422183009 13 0 0.0 0.0 0.00 0.08 0.05 1 1023.7
20190422181504 13 0 0.0 0.0 0.00 0.08 0.05 1 1023.8
20190422180009 13 0 0.0 0.0 0.03 0.08 0.05 1 1023.7
20190422174504 13 0 0.0 0.0 0.05 0.08 0.05 1 1023.6
20190422173005 14 0 0.0 0.0 0.05 0.08 0.05 1 1023.4
20190422171504 15 46 0.0 4.8 0.05 0.08 0.05 1 1023.5
20190422170004 14 46 0.0 1.6 0.03 0.05 0.03 1 1023.8
20190422164504 14 0 0.0 0.0 0.00 0.03 0.00 1 1023.9
20190422163009 14 0 0.0 0.0 0.00 0.03 0.00 1 1023.9
20190422161505 14 0 0.0 0.0 0.00 0.03 0.00 1 1023.8
20190422160005 14 0 0.0 0.0 0.00 0.03 0.00 1 1023.9
20190422154504 15 0 0.0 0.0 0.00 0.03 0.00 1 1023.9
20190422153009 14 0 0.0 0.0 0.00 0.03 0.00 1 1024.0
20190422151509 14 0 0.0 0.0 0.00 0.03 0.00 1 1024.2
20190422150005 13 0 0.0 0.0 0.00 0.03 0.00 1 1024.1
20190422144516 14 0 0.0 0.0 0.00 0.03 0.00 1 1024.2
20190422143004 14 0 0.0 0.0 0.00 0.03 0.00 1 1024.3
20190422141504 14 0 0.0 0.0 0.00 0.03 0.00 1 1024.2
20190422140004 14 0 0.0 0.0 0.00 0.03 0.00 1 1024.0
20190422134509 15 0 0.0 0.0 0.00 0.03 0.03 1 1023.9
20190422133010 15 0 0.0 0.0 0.00 0.03 0.03 1 1023.7
20190422131503 16 0 0.0 0.0 0.00 0.03 0.03 1 1023.7
20190422130009 15 0 0.0 0.0 0.00 0.03 0.03 1 1023.6
20190422124509 15 0 0.0 0.0 0.00 0.03 0.03 1 1023.6
20190422123009 16 0 0.0 0.0 0.00 0.03 0.03 1 1023.6
20190422121504 16 0 0.0 0.0 0.00 0.03 0.03 1 1023.5
20190422120009 16 0 0.0 0.0 0.00 0.03 0.03 1 1023.5
20190422114504 16 0 0.0 0.0 0.00 0.03 0.03 1 1023.6
20190422113009 16 0 0.0 0.0 0.00 0.03 0.03 1 1023.7
20190422111509 15 0 0.0 0.0 0.00 0.03 0.03 1 1023.7
20190422110009 16 0 0.0 0.0 0.00 0.03 0.03 1 1023.5
20190422104504 16 0 0.0 0.0 0.00 0.03 0.03 1 1023.4
20190422103010 16 0 0.0 0.0 0.00 0.03 0.03 1 1023.4
20190422101504 17 0 0.0 0.0 0.00 0.03 0.03 1 1023.3